Orbital Elements at Epoch 2459000.5 (2020-May-31.0) TDB
Reference: JPL 16 (heliocentric ecliptic J2000)
Element | Value | Uncertainty (1-sigma) | Units |
e | .2335443556667814 | 4.0569e-08 | |
a | 2.398043575644429 | 8.567e-09 | au |
q | 1.837994033909687 | 9.5783e-08 | au |
i | 1.699818455504311 | 4.6972e-06 | deg |
node | 209.0852216628039 | 0.00011241 | deg |
peri | 192.7550654812674 | 0.0001127 | deg |
M | 190.3615238666311 | 1.0355e-05 | deg |
tp | 2459639.654564027357 (2022-Mar-01.15456403) | 4.1587e-05 | TDB |
period | 1356.388292883205 3.71 | 7.2685e-06 1.99e-08 | d yr |
n | .2654107248557612 | 1.4223e-09 | deg/d |
Q | 2.958093117379172 | 1.0568e-08 | au |
|
| | Orbit Determination Parameters
Additional Information
|